{"data":{"norad_id":53416,"intl_designator":"2022-097AE","name":"STARLINK-4480","alt_names":[],"object_type":"PAYLOAD","status":"ACTIVE","operator":null,"country":"US","launch_date":"2022-08-10","launch_site_code":"AFETR","launch_vehicle":null,"mission":null,"orbit_class":"UNKNOWN","rcs_meters":null,"size_class":null,"mass_kg":null,"dimensions":null,"purposes":["comms"],"wikipedia_slug":null,"has_3d_model":false,"image_url":null,"decayed_at":null,"tle_current":{"epoch":"2026-09-20T04:00:03.000096Z","epoch_age_seconds":104253,"freshness":"FRESH","line1":"1 53416U 22097AE  26263.16670139  .00058239  00000+0  24144-2 0  9994","line2":"2 53416  53.1612 319.0566 0001871  61.1547 308.8780 15.23354587  5844","mean_motion":15.23354587,"eccentricity":0.0001871,"inclination_deg":53.1612,"raan_deg":319.0566,"arg_perigee_deg":61.1547,"mean_anomaly_deg":308.878,"bstar":0.0024144,"rev_number":584,"period_min":94.528221616206,"perigee_km":494.44463855454,"apogee_km":497.01683986255,"semimajor_km":6873.8677392085,"source":"CELESTRAK","updated_at":"2026-09-20T09:00:40.228858Z"}}}